FENGYUN 1C DEB

Satellite information

Favourite Embed

Satellite Type and Status

DEBRISIN ORBIT

Key statistics

Satellite FENGYUN 1C DEB at a glance.

Uptime

9493

Days in orbit

Revolutions

≈ 14.1

Per day

Orbit

SSO

Sun Synchronous Orbit

Inclination

99.5

Latest

Satellite identification and parameters

Extended collection of information and parameters for FENGYUN 1C DEB.

Object identification

Identified? True

Debris? True

Object name: FENGYUN 1C DEB

International designator: 1999-025NS

Object number (NORAD): 30041

Object ID (CCSDS): 30041

Country: PEOPLES REPUBLIC OF CHINA (PRC)

Current information (Y/N): Y

RCS size: SMALL

Orbital parameters

Period: 101.927 minutes

Inclination: 99.459 deg

SMA: 7228.016 km

Apoapsis: 876.021 km

Periapsis: 823.741 km

RAAN: 219.8544 deg

Eccentricy: 0.0036165

Argument of periapsis: 113.1737 deg

Mean anomaly: 12.9599 deg

Mean motion: 14.12778559 rev/day

Mean motion (dot): 0.00000989 rev/day2

B* drag term: 0.00055536 1/REarth

Two-line elements (TLE)

Creation date: May 6, 2025, 3:54 a.m.

Reference frame: TEME

Reference center: EARTH

Epoch: May 5, 2025, 7:43 p.m. UTC

TLE line 0: 0 FENGYUN 1C DEB

TLE line 1: 1 30041U 99025NS 25125.82197850 .00000989 00000-0 55536-3 0 9991

TLE line 2: 2 30041 99.4590 219.8544 0036165 113.1737 12.9599 14.12778559941674

Live tracking on map

Real-time ground track for satellite FENGYUN 1C DEB.

In-orbit conjunctions

A list of the most updated potential collisions computed for object FENGYUN 1C DEB.

Target Orbit TCA Probability of collision Miss distance Type
OV1-20/OV1-21 DEB LEO 2024-11-06 00:03:17 0.0001148908 256.0 (m) DEBRIS

Associated space launch

Chinese polar orbiting meteorological satellite

FENGYUN 1C DEB was lifted into orbit during the mission ‘Long March 4B | Feng Yun 1C’, on board a Long March 4B space rocket.

The launch took place on May 10, 1999, 1:33 a.m. from Launch Complex 7.

For more information about the launch, click the button.

Launch to space Long March 4B | Feng Yun 1C
Long March 4B | Feng Yun 1C

Agency: N/A

Status: Launch Successful

Launch date: May 10, 1999, 1:33 a.m. UTC

Rocket: Long March 4B

Launch pad: Launch Complex 7

Location: Taiyuan Satellite Launch Center, People's Republic of China

...

Latest news about this satellite

There are no fresh news available about this satellite. Check back as we update our databases every day.


Newsletter sign-up

Weekly statistics, charts and insights to help you stay on top of the space industry.